Regional Weather Roundup
Issued by NWS

Home | Current Version | Previous Version | Text Only | Print | Product List | Glossary Off
Versions: 1 2 3 4 5 6 7 8 9 10 11 12 13 14 15 16 17 18 19 20 21 22 23 24 25 26 27 28 29 30 31 32 33 34 35 36 37 38 39 40 41 42 43 44 45 46 47 48 49 50

000
ASUS43 KLSX 261310
RWRMO

WEATHER SUMMARY FOR MISSOURI
NATIONAL WEATHER SERVICE SPRINGFIELD MO
800 AM CDT THU MAY 26 2016

NOTE: "FAIR" INDICATES FEW OR NO CLOUDS BELOW 12,000 FEET WITH NO
       SIGNIFICANT WEATHER AND/OR OBSTRUCTIONS TO VISIBILITY.
       CURRENT SKY AND/OR WEATHER CONDITIONS ARE NOT AVAILABLE FOR
       CHILLICOTHE AND FARMINGTON.

MOZ001>031-035>038-043-044-053-054-261400-
...NORTHERN AND WESTERN MISSOURI...

CITY           SKY/WX    TMP DP  RH WIND       PRES   REMARKS
KANSAS CTY INT MOSUNNY   68  63  84 SE3       29.90R
KANSAS C DTWN  CLOUDY    69  63  81 S5        29.89F
LEE`S SUMMIT   CLOUDY    65  63  93 SE5       29.92R
ST JOSEPH      CLOUDY    67  62  84 N6        29.87F
CHILLICOTHE      N/A     67  61  81 NE3       29.89R
KIRKSVILLE     CLOUDY    70  67  90 NE7       29.92R

$$
MOZ066>068-077>081-088>096-101>105-261400-
...SOUTHWEST MISSOURI...

CITY           SKY/WX    TMP DP  RH WIND       PRES   REMARKS
SPRINGFIELD    PTSUNNY   74  70  87 SE7       29.97S
JOPLIN         CLOUDY    76  72  87 SW5       29.94R
BRANSON        MOSUNNY   73  73 100 S7        29.99R

$$
MOZ032>034-039>042-045>050-055>058-069>072-261400-
...CENTRAL MISSOURI...

CITY           SKY/WX    TMP DP  RH WIND       PRES   REMARKS
COLUMBIA       PTSUNNY   65  63  93 SW10      29.97R
JEFFERSON CITY CLOUDY    66  63  90 NW5       29.98R
ROLLA          CLOUDY    63  62  97 SE5       29.97R
SEDALIA        CLOUDY    70  58  65 SE21      29.89F
WHITEMAN AFB   PTSUNNY   63  63 100 SW15      29.91R
WARRENSBURG    CLOUDY    64  59  82 S10       29.92R

$$
MOZ051-052-059>065-261400-
...EAST CENTRAL MISSOURI...

CITY           SKY/WX    TMP DP  RH WIND       PRES   REMARKS
ST LOUIS INTL  TSTM      67  63  87 N6        30.02S
SPIRIT OF STL  LGT RAIN  66  65  96 CALM      29.97F
ST CHARLES     LGT RAIN  68  64  87 S8        29.99S

$$
MOZ072>076-082>087-097>100-106>115-261400-
...SOUTH CENTRAL AND SOUTHEAST MISSOURI...

CITY           SKY/WX    TMP DP  RH WIND       PRES   REMARKS
CAPE GIRARDEAU CLOUDY    70  64  81 S9        30.02R
FARMINGTON     CLOUDY    70  68  93 VRB5      30.02R FOG
POPLAR BLUFF   CLOUDY    69  67  93 S9        30.01R
WEST PLAINS    PTSUNNY   74  70  87 S9        30.01S FOG

$$




USA.gov is the U.S. government's official web portal to all federal, state and local government web resources and services.